Cheraw, CO

11:25 AM MST on February 10, 2016 (GMT -0700)
La Junta Municipal

Weather History for KLHX - October, 2013

Change the Weather History Date:

Wednesday, October 30, 2013

  Actual Average Record
Temperature  
Mean Temperature 55 °F 49 °F  
Max Temperature 68 °F 64 °F 87 °F (1950)
Min Temperature 41 °F 33 °F 9 °F (1993)
Degree Days  
Heating Degree Days 10 16  
Month to date heating degree days 343 332  
Since 1 July heating degree days 355 405  
Cooling Degree Days 0 0  
Month to date cooling degree days 8 7  
Year to date cooling degree days 1663 1223  
Growing Degree Days 4 (Base 50)    
Moisture  
Dew Point 32 °F    
Average Humidity 53    
Maximum Humidity 93    
Minimum Humidity 13    
Precipitation  
Precipitation T in 0.02 in 0.51 in (1991)
Month to date precipitation 0.26 0.88  
Year to date precipitation 4.98 10.79  
Sea Level Pressure  
Sea Level Pressure 29.80 in    
Wind  
Wind Speed 10 mph (ESE)    
Max Wind Speed 28 mph    
Max Gust Speed 37 mph    
Visibility 7 miles    
Events      
T = Trace of Precipitation, MM = Missing Value Source: NWS Daily Summary

Daily Weather History Graph

Daily Weather History Graph

Search for Another Location

Airport or City:

Trip Planner

Search our weather history database for the weather conditions in past years. The results will help you decide how hot, cold, wet, or windy it might be!

Date:

Astronomy

Oct. 30, 2013 Rise Set
Actual Time 7:18 AM MDT 5:56 PM MDT
Civil Twilight 6:50 AM MDT 6:23 PM MDT
Nautical Twilight 6:19 AM MDT 6:54 PM MDT
Astronomical Twilight 5:49 AM MDT 7:25 PM MDT
Moon 3:12 AM MDT (10/30) 3:40 PM MDT (10/30)
Length of Visible Light 11h 33m
Length of Day
10h 38m
Waning Crescent, 16% of the Moon is Illuminated
Oct 30
Waning Crescent
Nov 3
New
Nov 9
First Quarter
Nov 17
Full
Nov 25
Last Quarter

Hourly Weather History & Observations

Time (MDT) Temp. Windchill Dew Point Humidity Pressure Visibility Wind Dir Wind Speed Gust Speed Precip Events Conditions
12:04 AM 42.8 °F 35.1 °F 39.2 °F 87% 29.87 in 7.0 mi East 16.1 mph - N/A   Overcast
12:53 AM 42.1 °F 36.1 °F 39.9 °F 92% 29.90 in 6.0 mi North 10.4 mph - N/A   Overcast
1:53 AM 42.1 °F 34.5 °F 39.9 °F 92% 29.85 in 4.0 mi ENE 15.0 mph - N/A   Overcast
2:10 AM 42.8 °F 38.0 °F 39.2 °F 87% 29.91 in 2.0 mi ENE 8.1 mph - N/A   Overcast
2:23 AM 42.8 °F 37.0 °F 39.2 °F 87% 29.91 in 3.0 mi ENE 10.4 mph - N/A   Overcast
2:53 AM 42.1 °F 36.1 °F 39.9 °F 92% 29.86 in 2.0 mi ESE 10.4 mph - N/A   Overcast
3:04 AM 42.8 °F 37.5 °F 39.2 °F 87% 29.89 in 1.2 mi ESE 9.2 mph - N/A   Overcast
3:12 AM 42.8 °F 39.3 °F 41.0 °F 93% 29.89 in 1.0 mi East 5.8 mph - N/A   Mist
3:23 AM 41.0 °F 35.8 °F 39.2 °F 93% 29.89 in 1.5 mi East 8.1 mph - N/A   Overcast
3:40 AM 41.0 °F 36.4 °F 39.2 °F 93% 29.88 in 3.0 mi East 6.9 mph - N/A   Overcast
3:53 AM 41.0 °F 36.4 °F 39.9 °F 96% 29.85 in 3.0 mi SE 6.9 mph - N/A   Overcast
4:53 AM 42.1 °F 40.2 °F 39.9 °F 92% 29.82 in 3.0 mi East 3.5 mph - N/A   Overcast
5:53 AM 42.1 °F 37.7 °F 39.0 °F 89% 29.85 in 9.0 mi South 6.9 mph - N/A   Overcast
6:53 AM 42.1 °F 38.4 °F 39.0 °F 89% 29.85 in 8.0 mi SW 5.8 mph - N/A   Overcast
7:53 AM 42.1 °F 38.4 °F 37.9 °F 85% 29.85 in 9.0 mi SW 5.8 mph - N/A   Overcast
8:30 AM 42.8 °F 39.3 °F 37.4 °F 81% 29.89 in 9.0 mi SW 5.8 mph - N/A   Scattered Clouds
8:53 AM 43.0 °F 38.8 °F 37.9 °F 82% 29.86 in 9.0 mi SSW 6.9 mph - N/A   Partly Cloudy
9:53 AM 45.0 °F - 37.9 °F 76% 29.85 in 10.0 mi Calm Calm - N/A   Clear
10:53 AM 51.1 °F - 36.0 °F 56% 29.81 in 10.0 mi WSW 3.5 mph - N/A   Clear
11:53 AM 55.9 °F - 34.0 °F 44% 29.78 in 10.0 mi Calm Calm - N/A   Clear
12:53 PM 59.0 °F - 28.9 °F 32% 29.74 in 10.0 mi Calm Calm - N/A   Clear
1:53 PM 63.0 °F - 24.1 °F 23% 29.67 in 10.0 mi Variable 4.6 mph - N/A   Clear
2:53 PM 66.9 °F - 14.0 °F 13% 29.64 in 10.0 mi WSW 15.0 mph 24.2 mph N/A   Clear
3:53 PM 66.9 °F - 14.0 °F 13% 29.64 in 10.0 mi West 27.6 mph 32.2 mph N/A   Clear
4:53 PM 64.9 °F - 12.0 °F 13% 29.65 in 10.0 mi West 21.9 mph 32.2 mph N/A   Clear
5:53 PM 60.1 °F - 12.9 °F 16% 29.67 in 10.0 mi West 16.1 mph - N/A   Clear
6:53 PM 57.9 °F - 14.0 °F 18% 29.68 in 10.0 mi WNW 12.7 mph - N/A   Clear
7:53 PM 57.9 °F - 17.1 °F 20% 29.69 in 10.0 mi West 12.7 mph - N/A   Overcast
8:53 PM 55.9 °F - 19.9 °F 25% 29.70 in 10.0 mi NNW 4.6 mph 20.7 mph N/A   Overcast
9:53 PM 53.1 °F - 30.0 °F 41% 29.74 in 10.0 mi East 11.5 mph 18.4 mph 0.00 in   Overcast
10:53 PM 50.0 °F - 36.0 °F 59% 29.71 in 10.0 mi East 15.0 mph - N/A   Overcast
11:53 PM 45.0 °F 38.9 °F 36.0 °F 71% 29.72 in 10.0 mi NE 12.7 mph - N/A   Overcast